Weather History for KJXN - September, 2013

Change the Weather History Date:

Wednesday, September 18, 2013

  Actual Average Record
Temperature  
Mean Temperature 62 °F 61 °F  
Max Temperature 75 °F 72 °F 92 °F (1955)
Min Temperature 49 °F 50 °F 36 °F (1956)
Degree Days  
Heating Degree Days 3 6  
Month to date heating degree days 73 60  
Since 1 July heating degree days 121 95  
Cooling Degree Days 0 2  
Month to date cooling degree days 55 47  
Year to date cooling degree days 595 576  
Growing Degree Days 12 (Base 50)    
Moisture  
Dew Point 52 °F    
Average Humidity 70    
Maximum Humidity 90    
Minimum Humidity 49    
Precipitation  
Precipitation 0.00 in 0.12 in 1.99 in (1949)
Month to date precipitation 2.22 2.06  
Year to date precipitation 26.77 22.98  
Sea Level Pressure  
Sea Level Pressure 30.12 in    
Wind  
Wind Speed 5 mph (SSE)    
Max Wind Speed 13 mph    
Max Gust Speed 18 mph    
Visibility 10 miles    
Events      
T = Trace of Precipitation, MM = Missing Value Source: NWS Daily Summary

Daily Weather History Graph

Daily Weather History Graph

Search for Another Location

Airport or City:

Trip Planner

Search our weather history database for the weather conditions in past years. The results will help you decide how hot, cold, wet, or windy it might be!

Date:

Astronomy

Sep. 18, 2013 Rise Set
Actual Time 7:21 AM EDT 7:41 PM EDT
Civil Twilight 6:53 AM EDT 8:09 PM EDT
Nautical Twilight 6:20 AM EDT 8:42 PM EDT
Astronomical Twilight 5:46 AM EDT 9:16 PM EDT
Moon 7:03 PM EDT (9/18) 6:22 AM EDT (9/18)
Length of Visible Light 13h 16m
Length of Day
12h 20m
Waxing Gibbous, 99% of the Moon is Illuminated
Sep 18
Waxing Gibbous
Sep 19
Full
Sep 26
Last Quarter
Oct 4
New
Oct 11
First Quarter

Hourly Weather History & Observations

Time (EDT) Temp. Dew Point Humidity Pressure Visibility Wind Dir Wind Speed Gust Speed Precip Events Conditions
12:56 AM 50.0 °F 45.0 °F 83% 30.22 in 10.0 mi Calm Calm - N/A   Clear
1:56 AM 50.0 °F 46.0 °F 86% 30.20 in 10.0 mi SE 3.5 mph - N/A   Clear
2:56 AM 50.0 °F 46.0 °F 86% 30.19 in 10.0 mi Calm Calm - N/A   Clear
3:56 AM 50.0 °F 46.9 °F 89% 30.18 in 10.0 mi ESE 3.5 mph - N/A   Clear
4:56 AM 51.1 °F 48.0 °F 89% 30.17 in 10.0 mi SE 3.5 mph - N/A   Clear
5:56 AM 51.1 °F 48.0 °F 89% 30.17 in 10.0 mi Calm Calm - N/A   Clear
6:56 AM 50.0 °F 46.9 °F 89% 30.17 in 10.0 mi Calm Calm - N/A   Clear
7:56 AM 51.1 °F 48.9 °F 92% 30.18 in 10.0 mi Calm Calm - N/A   Clear
8:56 AM 55.0 °F 51.1 °F 86% 30.17 in 10.0 mi Calm Calm - N/A   Clear
9:56 AM 59.0 °F 53.1 °F 81% 30.18 in 10.0 mi South 3.5 mph - N/A   Clear
10:56 AM 64.9 °F 55.0 °F 70% 30.17 in 10.0 mi South 6.9 mph - N/A   Clear
11:56 AM 69.1 °F 55.9 °F 63% 30.16 in 10.0 mi South 6.9 mph - N/A   Clear
12:56 PM 72.0 °F 55.9 °F 57% 30.14 in 10.0 mi South 3.5 mph - N/A   Clear
1:56 PM 73.0 °F 55.0 °F 53% 30.11 in 10.0 mi SE 10.4 mph - N/A   Clear
2:56 PM 73.0 °F 54.0 °F 51% 30.10 in 10.0 mi SSE 6.9 mph 18.4 mph N/A   Clear
3:56 PM 73.9 °F 53.1 °F 48% 30.08 in 10.0 mi SSE 9.2 mph - N/A   Clear
4:56 PM 73.9 °F 55.0 °F 52% 30.06 in 10.0 mi SSE 10.4 mph - N/A   Clear
5:56 PM 73.9 °F 54.0 °F 50% 30.04 in 10.0 mi SSE 6.9 mph - N/A   Clear
6:56 PM 71.1 °F 55.0 °F 57% 30.05 in 10.0 mi SSE 5.8 mph - N/A   Mostly Cloudy
7:56 PM 66.0 °F 54.0 °F 65% 30.04 in 10.0 mi SE 4.6 mph - N/A   Clear
8:56 PM 64.0 °F 54.0 °F 70% 30.05 in 10.0 mi SE 5.8 mph - N/A   Clear
9:56 PM 64.0 °F 55.0 °F 73% 30.05 in 10.0 mi SE 6.9 mph - N/A   Clear
10:56 PM 63.0 °F 57.0 °F 81% 30.05 in 10.0 mi SE 8.1 mph - N/A   Mostly Cloudy
11:56 PM 61.0 °F 57.0 °F 87% 30.05 in 10.0 mi SE 5.8 mph - N/A   Clear